Time,TemperatureF,DewpointF,PressureIn,WindDirection,WindDirectionDegrees,WindSpeedMPH,WindSpeedGustMPH,Humidity,HourlyPrecipIn,Conditions,Clouds,dailyrainin,SoftwareType,DateUTC
2013-05-14 00:15:00,40.6,27.4,29.78,West,277,0.0,0.0,59,0.00,,,0.00,Wunderground v.1.12,2013-05-14 04:15:00,
2013-05-14 00:45:00,39.3,27.0,29.78,West,276,0.0,0.0,61,0.00,,,0.00,Wunderground v.1.12,2013-05-14 04:45:00,
2013-05-14 01:15:00,37.6,25.7,29.79,West,276,0.0,0.0,62,0.00,,,0.00,Wunderground v.1.12,2013-05-14 05:15:00,
2013-05-14 01:45:00,36.4,25.7,29.79,West,276,0.0,0.0,65,0.00,,,0.00,Wunderground v.1.12,2013-05-14 05:45:00,
2013-05-14 02:15:00,35.0,24.8,29.80,West,276,0.0,0.0,66,0.00,,,0.00,Wunderground v.1.12,2013-05-14 06:15:00,
2013-05-14 02:45:00,34.2,24.0,29.81,West,276,0.0,0.0,66,0.00,,,0.00,Wunderground v.1.12,2013-05-14 06:45:00,
2013-05-14 03:15:00,35.2,23.9,29.80,West,276,0.0,0.0,63,0.00,,,0.00,Wunderground v.1.12,2013-05-14 07:15:00,
2013-05-14 03:45:00,34.4,22.7,29.81,West,276,0.0,0.0,62,0.00,,,0.00,Wunderground v.1.12,2013-05-14 07:45:00,
2013-05-14 04:15:00,32.7,23.3,29.81,West,276,0.0,0.0,68,0.00,,,0.00,Wunderground v.1.12,2013-05-14 08:15:00,
2013-05-14 04:45:00,31.4,20.2,29.81,West,276,0.0,0.0,63,0.00,,,0.00,Wunderground v.1.12,2013-05-14 08:45:00,
2013-05-14 05:15:00,31.0,20.2,29.82,West,276,0.0,0.0,64,0.00,,,0.00,Wunderground v.1.12,2013-05-14 09:15:00,
2013-05-14 05:45:00,30.6,20.2,29.83,West,276,0.0,0.0,65,0.00,,,0.00,Wunderground v.1.12,2013-05-14 09:45:00,
2013-05-14 06:15:00,30.8,20.4,29.83,West,276,0.0,0.0,65,0.00,,,0.00,Wunderground v.1.12,2013-05-14 10:15:00,
2013-05-14 06:45:00,31.8,21.4,29.84,West,276,0.0,0.0,65,0.00,,,0.00,Wunderground v.1.12,2013-05-14 10:45:00,
2013-05-14 07:15:00,34.2,23.3,29.84,SSW,209,0.0,0.0,64,0.00,,,0.00,Wunderground v.1.12,2013-05-14 11:15:00,
2013-05-14 07:45:00,37.6,25.4,29.85,SSW,209,0.0,0.0,61,0.00,,,0.00,Wunderground v.1.12,2013-05-14 11:45:00,
2013-05-14 08:15:00,41.9,27.3,29.85,SSW,209,0.0,0.0,56,0.00,,,0.00,Wunderground v.1.12,2013-05-14 12:15:00,
2013-05-14 08:45:00,46.2,30.0,29.85,SSW,209,0.0,0.0,53,0.00,,,0.00,Wunderground v.1.12,2013-05-14 12:45:00,
2013-05-14 09:15:00,48.9,31.5,29.85,SSW,209,0.0,0.0,51,0.00,,,0.00,Wunderground v.1.12,2013-05-14 13:15:00,
2013-05-14 09:45:00,51.3,32.3,29.84,South,177,0.0,5.0,48,0.00,,,0.00,Wunderground v.1.12,2013-05-14 13:45:00,
2013-05-14 10:15:00,53.0,32.8,29.83,South,179,0.0,0.0,46,0.00,,,0.00,Wunderground v.1.12,2013-05-14 14:15:00,
2013-05-14 10:45:00,54.9,33.9,29.83,South,176,0.0,0.0,45,0.00,,,0.00,Wunderground v.1.12,2013-05-14 14:45:00,
2013-05-14 11:15:00,55.0,30.5,29.83,WNW,284,0.0,0.0,39,0.00,,,0.00,Wunderground v.1.12,2013-05-14 15:15:00,
2013-05-14 11:45:00,52.8,28.5,29.83,West,265,1.0,1.0,39,0.00,,,0.00,Wunderground v.1.12,2013-05-14 15:45:00,
2013-05-14 12:15:00,54.3,28.6,29.82,WNW,284,4.0,4.0,37,0.00,,,0.00,Wunderground v.1.12,2013-05-14 16:15:00,
2013-05-14 12:45:00,54.5,28.7,29.82,West,264,0.0,7.0,37,0.00,,,0.00,Wunderground v.1.12,2013-05-14 16:45:00,
2013-05-14 13:15:00,57.8,32.3,29.81,West,263,6.0,6.0,38,0.00,,,0.00,Wunderground v.1.12,2013-05-14 17:15:00,
2013-05-14 13:45:00,59.5,33.9,29.80,West,267,8.0,8.0,38,0.00,,,0.00,Wunderground v.1.12,2013-05-14 17:45:00,
2013-05-14 14:15:00,60.8,32.2,29.80,West,278,1.0,1.0,34,0.00,,,0.00,Wunderground v.1.12,2013-05-14 18:15:00,
2013-05-14 14:45:00,60.6,32.8,29.79,SW,225,0.0,0.0,35,0.00,,,0.00,Wunderground v.1.12,2013-05-14 18:45:00,
2013-05-14 15:15:00,60.0,28.4,29.78,West,279,3.0,3.0,30,0.00,,,0.00,Wunderground v.1.12,2013-05-14 19:15:00,
2013-05-14 15:45:00,60.1,30.1,29.77,WNW,293,5.0,13.0,32,0.00,,,0.00,Wunderground v.1.12,2013-05-14 19:45:00,
2013-05-14 16:15:00,58.7,29.6,29.76,SSE,159,0.0,0.0,33,0.00,,,0.00,Wunderground v.1.12,2013-05-14 20:15:00,
2013-05-14 16:45:00,59.0,31.4,29.75,WSW,239,6.0,6.0,35,0.00,,,0.00,Wunderground v.1.12,2013-05-14 20:45:00,
2013-05-14 17:15:00,58.1,29.1,29.75,WNW,286,2.0,2.0,33,0.00,,,0.00,Wunderground v.1.12,2013-05-14 21:15:00,
2013-05-14 17:45:00,56.9,29.5,29.75,West,263,7.0,7.0,35,0.00,,,0.00,Wunderground v.1.12,2013-05-14 21:45:00,
2013-05-14 18:15:00,55.3,30.7,29.74,WSW,246,2.0,2.0,39,0.00,,,0.00,Wunderground v.1.12,2013-05-14 22:15:00,
2013-05-14 18:45:00,56.3,29.7,29.74,West,259,0.0,10.0,36,0.00,,,0.00,Wunderground v.1.12,2013-05-14 22:45:00,
2013-05-14 19:15:00,54.3,29.8,29.75,West,262,3.0,3.0,39,0.00,,,0.00,Wunderground v.1.12,2013-05-14 23:15:00,
2013-05-14 19:45:00,52.0,29.0,29.75,West,268,2.0,11.0,41,0.00,,,0.00,Wunderground v.1.12,2013-05-14 23:45:00,
2013-05-14 20:15:00,48.8,27.8,29.75,West,265,0.0,0.0,44,0.00,,,0.00,Wunderground v.1.12,2013-05-15 00:15:00,
2013-05-14 20:45:00,46.4,26.2,29.76,West,262,0.0,10.0,45,0.00,,,0.00,Wunderground v.1.12,2013-05-15 00:45:00,
2013-05-14 21:15:00,44.7,25.2,29.76,West,261,0.0,0.0,46,0.00,,,0.00,Wunderground v.1.12,2013-05-15 01:15:00,
2013-05-14 21:45:00,43.4,25.0,29.76,West,261,0.0,0.0,48,0.00,,,0.00,Wunderground v.1.12,2013-05-15 01:45:00,
2013-05-14 22:15:00,41.9,27.3,29.77,West,262,0.0,0.0,56,0.00,,,0.00,Wunderground v.1.12,2013-05-15 02:15:00,
2013-05-14 22:45:00,40.9,27.2,29.77,West,261,0.0,0.0,58,0.00,,,0.00,Wunderground v.1.12,2013-05-15 02:45:00,
2013-05-14 23:15:00,40.3,26.7,29.76,West,261,0.0,0.0,58,0.00,,,0.00,Wunderground v.1.12,2013-05-15 03:15:00,
2013-05-14 23:45:00,39.3,28.5,29.76,West,261,0.0,0.0,65,0.00,,,0.00,Wunderground v.1.12,2013-05-15 03:45:00,